sat.trackr.live / text

‹ back to catalog

STARLINK-37718

NORAD 69242 · 2026-117E

PAYLOAD ACTIVE UNKNOWN

§ Identity

Operator
Country
US
Launch date
2026-05-29
Launch site
AFETR
Launch vehicle
Mass (kg)
RCS (m²)

Purposes: comms

External: N2YO · Heavens-Above · Gunter

§ Orbital elements

Epoch: 2026-09-20T02:06:04.968000Z

Period
93.85 min
Inclination
53.1575°
Eccentricity
0.0001344
Mean motion
15.34405311 rev/d
Perigee alt
461.8 km
Apogee alt
463.6 km
Semi-major
6,840.8 km
B*
5.4319e-4
RAAN
155.6748°
Arg perigee
88.5965°
Mean anomaly
271.5192°
Rev number
1,760

§ Raw data

STARLINK-377181 69242U 26117E   26263.08755750  .00018023  00000+0  54319-3 0  99942 69242  53.1575 155.6748 0001344  88.5965 271.5192 15.34405311 17608

JSON: /api/v1/satellites/69242 · /tle

For live sub-satellite position, see the globe view (requires WebGL).

§ Visibility from observer

Set your observer location to see the next 7 days of passes ≥ 10°. The values pass through the URL so the page stays shareable.

No JS? Fill the form by hand. The geolocation button needs JavaScript.